Location: Unspecified
(0.0000°N, 0.0000°E)
Time: 05:19:54
(UTC+02:00)

Vanguard 1 - Visible Passes

Search period start: 24 April 2014 00:00
Search period end: 04 May 2014 00:00
Orbit: 648 x 3839 km, 34.3° (Epoch: 19 April)

Date Brightness Start Highest point End Pass type
(mag) Time Alt. Az. Time Alt. Az. Time Alt. Az.
24 Apr 11.4 06:49:11 10° SSW 06:52:36 21° SE 06:56:33 10° E visible
24 Apr 12.9 21:13:13 10° WNW 21:35:17 55° SW 21:47:05 19° SSE visible
24 Apr 13.4 23:51:48 10° WSW 23:59:52 15° SW 23:59:52 15° SW visible
25 Apr 10.4 07:09:51 10° SSW 07:14:01 40° SE 07:19:17 10° ENE visible
25 Apr 12.9 21:36:51 10° WNW 21:57:15 43° SW 22:07:40 20° SSE visible
26 Apr 9.5 07:31:01 10° SW 07:35:26 79° SE 07:41:24 10° ENE visible
26 Apr 13.0 22:01:12 10° W 22:19:20 33° SW 22:28:13 20° S visible
27 Apr 11.9 05:37:57 11° SE 05:37:57 11° SE 05:38:41 10° ESE visible
27 Apr 13.1 19:51:51 10° WNW 20:15:28 68° SW 20:33:09 10° SE visible
27 Apr 13.1 22:26:26 10° W 22:41:38 25° SW 22:48:45 18° S visible
28 Apr 10.9 05:58:36 23° SE 05:58:36 23° SE 06:02:13 10° E visible
28 Apr 13.3 20:14:50 10° WNW 20:37:38 55° SW 20:54:31 10° SE visible
28 Apr 13.3 22:52:41 10° WSW 23:04:15 18° SSW 23:09:14 16° S visible
29 Apr 9.8 06:19:15 40° S 06:20:05 46° SE 06:24:37 10° ENE visible
29 Apr 13.3 20:38:22 10° WNW 20:59:52 44° SW 21:15:44 10° SSE visible
29 Apr 13.5 23:20:07 10° SW 23:27:12 13° SSW 23:29:41 13° SSW visible
30 Apr 9.1 06:39:53 38° WSW 06:41:34 86° NW 06:46:28 10° NE visible
30 Apr 13.3 21:02:36 10° W 21:22:16 34° SW 21:36:51 10° SSE visible
01 May 9.8 07:00:30 20° W 07:03:07 42° NW 07:07:51 10° NE visible
01 May 13.4 21:27:41 10° W 21:44:56 27° SSW 21:57:44 10° SSE visible
02 May 12.3 05:08:19 11° E 05:08:19 11° E 05:08:27 10° E visible
02 May 10.8 07:21:18 10° W 07:24:48 22° NNW 07:28:46 10° NNE visible
02 May 13.4 21:53:42 10° WSW 22:07:56 21° SSW 22:18:05 11° SSE visible
03 May 11.4 05:28:54 22° ENE 05:28:54 22° ENE 05:30:32 10° ENE visible
03 May 13.4 22:20:33 10° WSW 22:31:16 16° SSW 22:38:26 12° S visible
